Home > Weather > Porto Alegre > Past weeks

Flag for Brazil Weather for the Past 2 Weeks in Porto Alegre, Rio Grande do Sul, Brazil

Now
77 °F

Sunny.


Feels Like: 78 °F
Forecast: 73 / 90 °F
Wind: 7 mph from East

Location: Porto Alegre Aero-Porto

Current Time: Feb 10, 2016 at 10:04:53 AM

Latest Report: Feb 10, 2016 at 9:00 AM


Visibility: 10 mi

Pressure: 29.95 "Hg

Humidity: 89%

Dew point: 73 °F

Location of Porto AlegreLocation

Historic Weather in Porto Alegre — Graph

°F

Porto Alegre Temperature Yesterday

Maximum temperature yesterday: 86 °F (at 1:00 PM)
Minimum temperature yesterday: 41 °F (at 10:00 AM)
Average temperature yesterday: 79 °F

High & Low Weather Summary for the Past Weeks

 TemperatureHumidityPressure
High97 °F (Jan 29, 5:00 PM)100% (Jan 27, 5:00 AM)30.09 "Hg (Jan 27, 5:00 AM)
Low39 °F (Jan 31, 3:00 PM)24% (Jan 31, 4:00 PM)29.77 "Hg (Jan 26, 9:00 AM)
Average77 °F78%29.93 "Hg
* Reported Jan 26 9:00 AM — Feb 10 9:00 AM, Porto Alegre, Weather by CustomWeather, © 2016

Note: Actual official high and low records may vary slightly from our data, if they occured in-between our weather recording intervals... More about our weather records

Advertising

Porto Alegre Weather History for the Previous 24 Hours

 ConditionsComfort  
Time TempWeatherWind HumidityBarometerVisibility
9:00 AM
Wed, Feb 10
77 °FSunny.7 mph89%29.95 "Hg10 mi
8:00 AM75 °FSunny.6 mph89%29.95 "Hg10 mi
7:00 AM73 °FSunny.3 mph94%29.92 "Hg10 mi
6:00 AM75 °FClear.No wind89%29.92 "Hg10 mi
5:00 AM75 °FClear.No wind89%29.92 "Hg10 mi
4:00 AM77 °FClear.2 mph89%29.92 "Hg10 mi
3:00 AM77 °FClear.3 mph89%29.92 "Hg10 mi
2:00 AM79 °FClear.2 mph84%29.95 "Hg10 mi
1:00 AM79 °FPassing clouds.5 mph84%29.95 "HgN/A
12:00 AM79 °FPassing clouds.3 mph79%29.92 "HgN/A
11:00 PM
Tue, Feb 9
81 °FPassing clouds.5 mph74%29.92 "HgN/A
10:00 PM81 °FPartly cloudy.8 mph84%29.92 "HgN/A
9:00 PM81 °FPassing clouds.10 mph79%29.89 "HgN/A
8:00 PM81 °FScattered clouds.12 mph79%29.86 "HgN/A
7:00 PM84 °FScattered clouds.17 mph74%29.86 "HgN/A
6:00 PM84 °FPartly sunny.15 mph74%29.83 "HgN/A
5:00 PM84 °FPartly sunny.14 mph79%29.83 "HgN/A
4:00 PM84 °FPartly sunny.15 mph74%29.86 "HgN/A
3:00 PM82 °FPartly sunny.16 mph79%29.83 "HgN/A
2:00 PM84 °FBroken clouds.15 mph79%29.86 "HgN/A
1:00 PM86 °FPartly sunny.12 mph79%29.83 "HgN/A
12:00 PM82 °FPartly sunny.9 mph84%29.83 "HgN/A
11:00 AM79 °FThundershowers. Partly sunny.5 mph89%29.86 "Hg4 mi
10:00 AM41 °FThunderstorms. Cloudy.5 mph100%29.86 "Hg2 mi
Weather by CustomWeather, © 2016

See weather overviewHow to use our weather pages